Regional Weather Roundup
Issued by NWS Cleveland, OH

Home | Current Version | Previous Version | Text Only | Print | Product List | Glossary Off
Versions: 1 2 3 4 5 6 7 8 9 10 11 12 13 14 15 16 17 18 19 20 21 22 23 24 25 26 27 28 29 30 31 32 33 34 35 36 37 38 39 40 41 42 43 44 45 46 47 48 49 50

000
ASUS41 KCLE 231702
RWRCLE
OHIO REGIONAL WEATHER ROUNDUP
NATIONAL WEATHER SERVICE CLEVELAND, OH
100 PM EDT SAT SEP 23 2017

NOTE: "FAIR" INDICATES FEW OR NO CLOUDS BELOW 12,000 FEET WITH NO
SIGNIFICANT WEATHER AND/OR OBSTRUCTIONS TO VISIBILITY.

OHZ001>008-015>018-024>027-034-035-043-044-231800-
   NORTHWEST OHIO

CITY           SKY/WX    TMP DP  RH WIND       PRES   REMARKS
DEFIANCE       SUNNY     87  64  46 CALM      30.14S
FINDLAY        SUNNY     88  61  40 MISG      30.13F
TOLEDO EXPRESS SUNNY     88  68  51 NE3       30.15S HX  91
TOLEDO EXEC    SUNNY     88  64  44 N3        30.16R
LIMA           SUNNY     90  59  35 SE8       30.14F
$$

OHZ009>014-019>023-028>033-038-089-231800-
   NORTHEAST OHIO

CITY           SKY/WX    TMP DP  RH WIND       PRES   REMARKS
CLE-HOPKINS    SUNNY     89  54  30 N7        30.18R
CLE-LAKEFRONT  SUNNY     78  63  59 N6        30.16R
CUY CO. ARPT   SUNNY     86  57  37 NE6       30.18S
LORAIN-ELYRIA  SUNNY     86  55  34 N6        30.17R
ASHTABULA      SUNNY     84  56  38 NE5       30.18F
AKRON-CANTON   MOSUNNY   87  55  33 CALM      30.16F
WOOSTER        SUNNY     85  58  39 E6        30.17F
MANSFIELD      SUNNY     85  57  38 NE7       30.17F
YOUNGSTOWN     MOSUNNY   85  51  31 NE5       30.17S
$$

OHZ042-051>053-060>062-070>072-077>081-231800-
  SOUTHWEST OHIO

CITY           SKY/WX    TMP DP  RH WIND       PRES   REMARKS
CINC-COVINGTON MOSUNNY   85  66  53 E7        30.13F
CINC-LUNKEN    SUNNY     87  65  47 VRB5      30.12F
HAMILTON       SUNNY     87  66  49 MISG      30.13F
DAYTON         SUNNY     86  63  45 VRB5      30.15F
WRIGHT-PAT AFB NOT AVBL
DAYTON GENERAL SUNNY     85  63  47 SW6       30.13F
WILMINGTON     SUNNY     86  66  51 NE7       30.13F
$$

OHZ036-037-039>041-045>050-054>059-063>069-073>076-082>088-231800-
  CENTRAL AND SOUTHEAST OHIO

CITY           SKY/WX    TMP DP  RH WIND       PRES   REMARKS
COLUMBUS       SUNNY     88  59  37 E6        30.13F
OSU AIRPORT    SUNNY     86  60  41 E7        30.14S
BOLTON FIELD   SUNNY     84  63  48 E5        30.14F
RICKENBACK AFB SUNNY     85  60  43 NE5       30.13S
NEWARK         SUNNY     86  56  35 VRB7      30.13F
MARION         SUNNY     89  53  29 SE9       30.15F
LANCASTER      SUNNY     85  62  46 VRB3      30.14F
ZANESVILLE     SUNNY     87  54  32 VRB3      30.14F
NEW PHILLY     NOT AVBL
$$




USA.gov is the U.S. government's official web portal to all federal, state and local government web resources and services.